Regional Weather Roundup
Issued by NWS Wakefield, VA

Home | Current Version | Previous Version | Text Only | Print | Product List | Glossary Off
Versions: 1 2 3 4 5 6 7 8 9 10 11 12 13 14 15 16 17 18 19 20 21 22 23 24 25 26 27 28 29 30 31 32 33 34 35 36 37 38 39 40 41 42 43 44 45 46 47 48 49 50

904
ASUS41 KAKQ 170915
RWRAKQ

REGIONAL WEATHER ROUNDUP
NATIONAL WEATHER SERVICE WAKEFIELD VA
400 AM EST FRI NOV 17 2017

Note: "fair" indicates few or no clouds below 12,000 feet with no
significant weather and/or obstructions to visibility. * = Denotes
station may not report precipitation (e.g., rain,snow,etc.),
thunder or fog.

VAZ042-051-052>054-056-171000-
NORTHERN VIRGINIA

CITY           SKY/WX    TMP DP  RH WIND       PRES   REMARKS
WASH NATIONAL  MOCLDY    45  30  55 W9        30.16R
DULLES         MOCLDY    41  29  62 W6        30.15R
FORT BELVOIR   CLEAR     42  28  56 W7        30.15S
QUANTICO       NOT AVBL
FREDERICKSBRG* CLEAR     37  32  81 NW6       30.15S
STAFFORD*      CLEAR     33  30  88 NW5       30.20S
WARRENTON      NOT AVBL
CULPEPER*      CLEAR     35  28  76 NW6       30.17S
MANASSAS*      CLEAR     42  29  59 NW10      30.16S
LEESBURG*      CLOUDY    43  32  65 NW9       30.15S
WINCHESTER     CLEAR     37  28  70 W8        30.15R
FRONT ROYAL*   SUNNY     37  30  75 S3        30.15R
LURAY*         MOSUNNY   39  30  70 SW3       30.16S
$$

VAZ048-049-060>072-079>083-171000-
CENTRAL AND SOUTH CENTRAL VIRGINIA

CITY           SKY/WX    TMP DP  RH WIND       PRES   REMARKS
RICHMOND       PTCLDY    38  30  73 N8        30.15S
CHESTERFIELD*  NOT AVBL
PETERSBURG*    CLEAR    N/A N/A N/A SW5       30.16S
HANOVER        PTCLDY    35  30  82 CALM      30.17S
TAPPAHANNOCK*    N/A    N/A N/A N/A MISG        N/A
QUINTON*       FAIR      37  31  79 CALM      30.15S
CHARLOTTSVILLE CLEAR     41  27  57 CALM      30.15F
GORDONSVILLE*  MOSUNNY   31  28  90 CALM      30.15S
ORANGE*        PTCLDY    32  28  86 CALM      30.16R
LOUISA*        PTCLDY    31  27  87 W6        30.19F
BUMPASS*       FAIR      33  30  86 CALM      30.15F
FARMVILLE*     CLEAR     37  31  79 CALM      30.17R
CREWE*         FAIR      34  32  93 CALM      30.16S
FORT PICKETT*  NOT AVBL
CHASE CITY*    FAIR      32  32 100 CALM      30.19R
CLARKSVILLE*   FAIR      36  32  87 CALM      30.19R
SOUTH HILL*    CLEAR     33  31  92 CALM      30.23R
LAWRENCEVILLE* FAIR      32  31  95 CALM      30.17R
EMPORIA*       CLEAR     32  30  93 CALM      30.19R
$$

VAZ088>098-171000-
SOUTHEAST VIRGINIA

CITY           SKY/WX    TMP DP  RH WIND       PRES   REMARKS
NORFOLK        CLEAR     46  32  58 N13G23    30.13S
VIRGINIA BEACH NOT AVBL
NORFOLK NAVAL  CLEAR     46  30  53 N15G22    30.15S
WEST POINT*    PTCLDY    40  31  68 NW3       30.16S
SALUDA*        FAIR      44  33  64 NW9G17    30.13S
NEWPORT NEWS   CLEAR     43  29  57 N8        30.14S
LANGLEY AFB    CLEAR     44  30  58 NW10G18   30.13S
FORT EUSTIS    CLEAR     45  31  58 N8        30.12R
WILLIAMSBURG*  CLEAR     43  32  65 CALM      30.15R
HR EXEC AP*    NOT AVBL
FRANKLIN*      CLEAR     34  32  93 CALM      30.17R
US460-WAKEFLD  CLEAR     32  30  92 CALM      30.15S
$$

VAZ020-022-025-037-045-171000-
WEST CENTRAL AND SOUTHWEST VIRGINIA

CITY           SKY/WX    TMP DP  RH WIND       PRES   REMARKS
STAUNTON*      CLEAR     28  25  86 CALM      30.20R
WAYNESBORO*    MOSUNNY   33  26  76 W6        30.16F
HOT SPRINGS VA CLOUDY    28  26  91 W20       30.10F WCI  15
LYNCHBURG      CLEAR     37  26  64 NW5       30.18S
DANVILLE       CLEAR     39  30  70 N9        30.19S
SOUTH BOSTON*  FAIR      39  29  67 NW7       30.20S
MARTINSVILLE   CLEAR     36  29  78 CALM      30.22S
ROANOKE        CLEAR     35  27  72 NW8       30.22S
BLACKSBURG     CLEAR     32  27  82 W8        30.22S
DUBLIN*        CLEAR     34  29  83 NW6       30.20F
MARION*        CLEAR     31  28  88 W7        30.21F
HILLSVILLE*    CLEAR     32  29  89 N5        30.15S
RICHLANDS*     FAIR      32  29  89 CALM      30.21S
WISE*          CLOUDY    32  32 100 CALM      30.21S
ABINGDON*      CLEAR     33  32  98 CALM      30.21R
$$

MDZ021>025-VAZ099-100-171000-
SOUTHERN MARYLAND AND THE DELMARVA PENINSULA

CITY           SKY/WX    TMP DP  RH WIND       PRES   REMARKS
PATUXENT RIVER NOT AVBL
BAY BRIDGE APT CLEAR     45  32  61 W12       30.11S
LEONARDTOWN    PTCLDY    37  30  75 W6        30.14S
DOVER          MOCLDY    44  42  93 W9        30.08R
GEORGETOWN     PTCLDY    41  31  67 W3        30.09S
EASTON         CLEAR     45  31  58 NW12G17   30.14R
CAMBRIDGE        N/A    N/A N/A N/A MISG        N/A
SALISBURY      PTCLDY    43  32  65 W10       30.09S
OCEAN CITY     CLEAR     40  32  73 W5        30.09S
WALLOPS ISLAND CLEAR     42  33  70 W7        30.11S
ACCOMACK*      CLEAR     45  32  60 NW14G22   30.12S
$$

NCZ012>017-030>032-171000-
NORTH CENTRAL AND EASTERN NORTH CAROLINA

CITY           SKY/WX    TMP DP  RH WIND       PRES   REMARKS
ROANOKE RAPIDS FAIR      36  32  87 CALM      30.17S
RALEIGH        PTCLDY    42  30  62 N7        30.18R
ELIZABETH CITY CLEAR     44  35  70 NW13      30.13R
AHOSKIE*       CLEAR     37  33  85 CALM      30.17R
EDENTON*       CLEAR     41  35  79 CALM      30.15R
CURRITUCK*     CLEAR     43  36  74 CALM      30.13R
KILL DEVIL HLS PTCLDY    49  38  65 NW5       30.10R
MANTEO         CLEAR     48  39  72 N13       30.12R
CAPE HATTERAS  CLEAR     53  44  71 N10G22    30.09R
TARBORO*       NOT AVBL
GOLDSBORO      CLEAR     44  32  63 NE7       30.14R
WASHINGTON     CLEAR     41  34  77 CALM      30.16R
GREENVILLE     CLEAR     37  32  81 CALM      30.17R
NEW BERN       CLEAR     43  38  82 N10       30.15R
WILMINGTON     CLEAR     45  36  70 N6        30.14R
$$

VAZ048-171000-
ELSEWHERE

CITY           SKY/WX    TMP DP  RH WIND       PRES   REMARKS
HARRISBURG PA  PTCLDY    41  27  57 NW24G32   30.08S
BALTIMORE      CLEAR     38  30  73 W9        30.11R
ANNAPOLIS      NOT AVBL
ANDREWS AFB    CLEAR     42  28  59 W10       30.12R
PHILADELPHIA   MOCLDY    46  28  49 NW14      30.05R
HENDERSON NC   CLEAR     38  28  68 CALM      30.18R
GREENSBORO     CLEAR     40  31  70 NE5       30.17R
ROCKY MOUNT    CLEAR     38  33  82 NE7       30.17S
$$

VAZ100-171000-
MARINE

STATION/POSITION TIME  TEMP    WIND        PRES    WAVE   SWELL
                       AIR SEA DIR/SP/G            HT/PER HT/PER
                 (UTC) (F)     (DEG/KT/KT) (MB)    (FT/S) (FT/S)
BRANDYWINE LGT   0842   47     300/ 24/ 30 1018.2R
CAPE MAY NJ      0842   46 50  320/ 16/ 25 1017.4R
LEWES DE         0842   41 52  280/ 11/ 13 1018.1F
15NM E FENWICK I 0850   48 59  300/ 25/ 31 1017.5S   5/ 6   2/12
OCEAN-CITY-INLET 0842   43 52  310/  6/  9 1019.1R
WACHAPREAGUE VA  0842   44 52  300/  4/  8 1019.5F
THOMAS POINT MD  0900   45 53  290/ 14/ 15   N/A
GOOSES REEF MD   0900   46 54  320/ 19/ 23 1015.3    2/ 3
COVE POINT MD    0842   44     330/ 11/ 18 1020.5S
SOLOMONS ISLAND  0842   43 54  270/  5/  9 1019.8F
BISHOPS HEAD MD  0842   45 49  300/ 19/ 21 1020.0F
PINEY POINT MD   0842          330/ 21/ 24   N/A
POTOMAC MD       0900   47 56  320/ 21/ 27 1019.3    2/ 3
CAMBRIDGE MD     0842   45 51              1020.0F
LEWISETTA VA     0842   43 51  320/ 12/ 14 1020.3F
RAPPAHANNOCK LGT 0842          320/ 24/ 28 1020.3F
STINGRAY PT      0900   45 55  350/ 17/ 19 1020.4    2/ 3
YORK RVR RNG VA  0842   46     350/ 25/ 28 1020.4R
YORKTOWN VA      0842   45 56  330/ 16/ 21 1020.2S
JAMESTOWN VA     0900      55   10/  6/ 10   N/A
DOMINION TERM VA 0842   45      30/  2/  6 1020.7F
KIPTOPEKE VA     0842      54  360/ 21/ 28   N/A
CAPE HENRY VA    0842   47     330/ 22/ 26   N/A
WILLOUBY STN VA  0842   46     350/ 16/ 20 1020.4R
S CRANEY ISL VA  0842   46     350/ 13/ 16 1020.4S
CAPE HENRY BUOY  0900      61                N/A     5/ 5   2/12
1ST LANDING BUOY 0900   47 56  360/ 21/ 29 1020.4    3/ 3
CAPE CHARLES BUO 0851      58                N/A     4/12   2/12
64NM E OF VA BCH 0850   51 61  340/ 23/ 27 1018.0S   9/ 7   3/11
DUCK PIER NC     0842   48 58  330/ 20/ 24 1018.7R
44100 DUCK FRF   0845      62                N/A     8/ 6   2/13
44056 DUCK FRF   0900      60                N/A     6/ 6   2/13
OREGON INLET NC  0842   51 58  340/ 13/ 18 1019.2R
HATTERAS NC      0842   54 60   10/ 21/ 24 1018.6R
DIAMOND SHLS NC  0900   57 65   10/ 21/ 27 1018.6
CAPE LOOKOUT NC  0900   51     360/ 17/ 21 1019.8R
$$




USA.gov is the U.S. government's official web portal to all federal, state and local government web resources and services.